EZY8635 EGKK-EDDH

Flight info

Callsign EZY8635
Flight time 1h 15m
Altitude 37000
Route FRANE M604 PAAVO Q295 SOMVA DCT MAVAS DCT PARYD DCT GASTU DCT OSTOR/N0391F230 T904 RIBSO RIBSO7A
Aircraft A320/M-SDE3FGHIRWY/LB1

Departure

Time 2026-05-07 18:46
Airport London Gatwick Airport (EGKK)

Arrival

Time 2026-05-07 20:01
Airport Hamburg Helmut Schmidt Airport (EDDH)
Time Latitude Longitude Altitude Speed Heading
2026-05-07 18:12 51.15837 -0.17635 205 ft 0 kts 347°
2026-05-07 18:31 51.15833 -0.17634 216 ft 3 kts 347°
2026-05-07 18:31 51.15807 -0.17623 213 ft 4 kts 343°
2026-05-07 18:31 51.15773 -0.17603 214 ft 4 kts 327°
2026-05-07 18:32 51.15760 -0.17586 217 ft 4 kts 302°
2026-05-07 18:32 51.15755 -0.17564 213 ft 0 kts 257°
2026-05-07 18:35 51.15753 -0.17576 217 ft 6 kts 257°
2026-05-07 18:35 51.15734 -0.17709 214 ft 15 kts 257°
2026-05-07 18:35 51.15713 -0.17864 205 ft 14 kts 258°
2026-05-07 18:36 51.15694 -0.18002 207 ft 12 kts 258°
2026-05-07 18:36 51.15678 -0.18122 208 ft 10 kts 258°
2026-05-07 18:36 51.15657 -0.18221 210 ft 9 kts 230°
2026-05-07 18:36 51.15607 -0.18233 205 ft 7 kts 171°
2026-05-07 18:37 51.15566 -0.18220 207 ft 6 kts 167°
2026-05-07 18:37 51.15497 -0.18195 208 ft 11 kts 167°
2026-05-07 18:37 51.15424 -0.18161 206 ft 11 kts 167°
2026-05-07 18:37 51.15353 -0.18136 211 ft 10 kts 167°
2026-05-07 18:38 51.15270 -0.18108 209 ft 14 kts 168°
2026-05-07 18:38 51.15204 -0.18172 207 ft 12 kts 252°
2026-05-07 18:38 51.15182 -0.18289 210 ft 10 kts 253°
2026-05-07 18:38 51.15175 -0.18395 213 ft 9 kts 269°
2026-05-07 18:39 51.15161 -0.18522 213 ft 14 kts 257°
2026-05-07 18:39 51.15140 -0.18668 209 ft 13 kts 257°
2026-05-07 18:39 51.15121 -0.18798 206 ft 11 kts 257°
2026-05-07 18:39 51.15105 -0.18911 206 ft 10 kts 257°
2026-05-07 18:40 51.15093 -0.19006 210 ft 8 kts 259°
2026-05-07 18:40 51.15077 -0.19139 207 ft 16 kts 258°
2026-05-07 18:40 51.15050 -0.19334 205 ft 20 kts 257°
2026-05-07 18:40 51.15017 -0.19569 210 ft 22 kts 257°
2026-05-07 18:41 51.14985 -0.19808 215 ft 22 kts 258°
2026-05-07 18:41 51.14950 -0.20052 207 ft 23 kts 257°
2026-05-07 18:41 51.14914 -0.20303 205 ft 24 kts 257°
2026-05-07 18:41 51.14877 -0.20566 206 ft 25 kts 258°
2026-05-07 18:42 51.14840 -0.20839 214 ft 26 kts 257°
2026-05-07 18:42 51.14801 -0.21118 205 ft 20 kts 256°
2026-05-07 18:42 51.14771 -0.21303 205 ft 16 kts 254°
2026-05-07 18:42 51.14729 -0.21402 211 ft 5 kts 200°
2026-05-07 18:43 51.14728 -0.21402 211 ft 0 kts 199°
2026-05-07 18:44 51.14725 -0.21403 211 ft 3 kts 195°
2026-05-07 18:44 51.14673 -0.21377 207 ft 12 kts 143°
2026-05-07 18:44 51.14580 -0.21315 211 ft 15 kts 159°
2026-05-07 18:44 51.14519 -0.21185 208 ft 16 kts 88°
2026-05-07 18:45 51.14524 -0.21142 206 ft 0 kts 78°
2026-05-07 18:45 51.14554 -0.20931 214 ft 53 kts 77°
2026-05-07 18:45 51.14681 -0.20008 210 ft 115 kts 77°
2026-05-07 18:45 51.14892 -0.18491 218 ft 162 kts 77°
2026-05-07 18:46 51.15141 -0.16738 835 ft 162 kts 78°
2026-05-07 18:46 51.15400 -0.14968 1499 ft 166 kts 80°
2026-05-07 18:46 51.15665 -0.13139 1954 ft 178 kts 79°
2026-05-07 18:46 51.15954 -0.11109 2311 ft 197 kts 78°
2026-05-07 18:47 51.16262 -0.08895 2680 ft 213 kts 79°
2026-05-07 18:47 51.16580 -0.06465 3018 ft 237 kts 79°
2026-05-07 18:47 51.16871 -0.03755 3564 ft 253 kts 85°
2026-05-07 18:47 51.16859 -0.00933 4454 ft 256 kts 92°
2026-05-07 18:48 51.16793 0.01951 4849 ft 262 kts 92°
2026-05-07 18:48 51.16723 0.04853 4926 ft 263 kts 92°
2026-05-07 18:48 51.16662 0.07759 4890 ft 262 kts 92°
2026-05-07 18:48 51.16605 0.10654 4857 ft 261 kts 91°
2026-05-07 18:49 51.16551 0.13611 5075 ft 274 kts 91°
2026-05-07 18:49 51.16504 0.16574 6247 ft 265 kts 91°
2026-05-07 18:49 51.16495 0.19539 6993 ft 272 kts 90°
2026-05-07 18:49 51.16528 0.22593 7708 ft 280 kts 89°
2026-05-07 18:50 51.16581 0.25726 8427 ft 286 kts 89°
2026-05-07 18:50 51.16608 0.28926 9195 ft 291 kts 91°
2026-05-07 18:50 51.16607 0.32198 9625 ft 298 kts 91°
2026-05-07 18:50 51.16604 0.35486 9735 ft 297 kts 91°
2026-05-07 18:51 51.16600 0.38797 10261 ft 300 kts 91°
2026-05-07 18:51 51.16592 0.42140 11065 ft 302 kts 91°
2026-05-07 18:51 51.16587 0.45498 11824 ft 305 kts 91°
2026-05-07 18:51 51.16724 0.48886 12530 ft 311 kts 79°
2026-05-07 18:52 51.17532 0.52090 12782 ft 320 kts 55°
2026-05-07 18:52 51.19219 0.54592 12842 ft 346 kts 32°
2026-05-07 18:52 51.21449 0.56241 12842 ft 359 kts 16°
2026-05-07 18:52 51.23888 0.57164 12855 ft 362 kts 12°
2026-05-07 18:53 51.26348 0.58076 12875 ft 363 kts 13°
2026-05-07 18:53 51.28801 0.59027 12907 ft 364 kts 13°
2026-05-07 18:53 51.31278 0.59998 13549 ft 368 kts 13°
2026-05-07 18:53 51.33772 0.60969 14398 ft 370 kts 13°
2026-05-07 18:54 51.36285 0.61930 15000 ft 374 kts 12°
2026-05-07 18:54 51.38830 0.62885 15618 ft 377 kts 12°
2026-05-07 18:54 51.41394 0.63842 16241 ft 380 kts 12°
2026-05-07 18:54 51.43978 0.64815 16825 ft 383 kts 12°
2026-05-07 18:55 51.46577 0.65801 17041 ft 384 kts 12°
2026-05-07 18:55 51.49172 0.66792 17085 ft 384 kts 12°
2026-05-07 18:55 51.51766 0.67789 17084 ft 383 kts 12°
2026-05-07 18:55 51.54360 0.68786 17082 ft 383 kts 12°
2026-05-07 18:56 51.56952 0.69782 17089 ft 383 kts 12°
2026-05-07 18:56 51.59544 0.70771 17084 ft 383 kts 12°
2026-05-07 18:56 51.62150 0.71760 17331 ft 387 kts 12°
2026-05-07 18:56 51.64780 0.72754 17985 ft 389 kts 12°
2026-05-07 18:57 51.67420 0.73750 18565 ft 391 kts 12°
2026-05-07 18:57 51.70082 0.74761 19075 ft 394 kts 12°
2026-05-07 18:57 51.72756 0.75779 19580 ft 397 kts 12°
2026-05-07 18:57 51.75454 0.76809 20078 ft 399 kts 12°
2026-05-07 18:58 51.78159 0.77852 20569 ft 402 kts 12°
2026-05-07 18:58 51.80823 0.79311 21059 ft 407 kts 22°
2026-05-07 18:58 51.83322 0.81501 21531 ft 411 kts 32°
2026-05-07 18:58 51.85587 0.84331 21989 ft 415 kts 42°
2026-05-07 18:59 51.87407 0.87965 22427 ft 419 kts 60°
2026-05-07 18:59 51.88438 0.92369 22855 ft 421 kts 80°
2026-05-07 18:59 51.88643 0.97108 23271 ft 424 kts 90°
2026-05-07 18:59 51.88818 1.01878 23701 ft 427 kts 84°
2026-05-07 19:00 51.89325 1.06626 24053 ft 430 kts 76°
2026-05-07 19:00 51.90233 1.11242 24407 ft 432 kts 68°
2026-05-07 19:00 51.91405 1.15738 24766 ft 435 kts 66°
2026-05-07 19:00 51.92626 1.20230 25123 ft 437 kts 65°
2026-05-07 19:01 51.93877 1.24739 25473 ft 439 kts 65°
2026-05-07 19:01 51.95137 1.29256 25815 ft 441 kts 65°
2026-05-07 19:01 51.96397 1.33805 26164 ft 444 kts 65°
2026-05-07 19:01 51.97650 1.38391 26493 ft 446 kts 66°
2026-05-07 19:02 51.98896 1.43009 26827 ft 448 kts 66°
2026-05-07 19:02 52.00145 1.47659 27153 ft 450 kts 66°
2026-05-07 19:02 52.01395 1.52332 27507 ft 452 kts 66°
2026-05-07 19:02 52.02647 1.57030 27841 ft 454 kts 66°
2026-05-07 19:03 52.03902 1.61745 28169 ft 456 kts 66°
2026-05-07 19:03 52.05164 1.66480 28524 ft 457 kts 66°
2026-05-07 19:03 52.06431 1.71231 28848 ft 459 kts 66°
2026-05-07 19:03 52.07702 1.75997 29144 ft 461 kts 66°
2026-05-07 19:04 52.08981 1.80798 29429 ft 463 kts 66°
2026-05-07 19:04 52.10256 1.85611 29707 ft 465 kts 67°
2026-05-07 19:04 52.11536 1.90464 29987 ft 467 kts 67°
2026-05-07 19:04 52.12816 1.95324 30241 ft 469 kts 67°
2026-05-07 19:05 52.14102 2.00224 30463 ft 471 kts 67°
2026-05-07 19:05 52.15385 2.05125 30716 ft 472 kts 67°
2026-05-07 19:05 52.16670 2.10033 31032 ft 471 kts 67°
2026-05-07 19:05 52.17954 2.14941 31356 ft 470 kts 67°
2026-05-07 19:06 52.19233 2.19843 31674 ft 470 kts 67°
2026-05-07 19:06 52.21782 2.29646 32288 ft 469 kts 67°
2026-05-07 19:06 52.23052 2.34546 32602 ft 469 kts 67°
2026-05-07 19:07 52.24320 2.39445 32905 ft 469 kts 67°
2026-05-07 19:07 52.25584 2.44345 33215 ft 468 kts 67°
2026-05-07 19:07 52.26842 2.49238 33585 ft 466 kts 68°
2026-05-07 19:07 52.28091 2.54104 33978 ft 464 kts 68°
2026-05-07 19:08 52.29336 2.58957 34287 ft 463 kts 68°
2026-05-07 19:08 52.30564 2.63816 34533 ft 463 kts 70°
2026-05-07 19:08 52.31524 2.68828 34759 ft 462 kts 75°
2026-05-07 19:08 52.32414 2.73874 34994 ft 462 kts 75°
2026-05-07 19:09 52.33302 2.78929 35210 ft 462 kts 75°
2026-05-07 19:09 52.34190 2.83987 35426 ft 463 kts 75°
2026-05-07 19:09 52.35073 2.89043 35641 ft 463 kts 75°
2026-05-07 19:09 52.35952 2.94101 35846 ft 463 kts 75°
2026-05-07 19:10 52.36833 2.99167 36040 ft 463 kts 75°
2026-05-07 19:10 52.37714 3.04243 36233 ft 463 kts 75°
2026-05-07 19:10 52.38593 3.09317 36420 ft 464 kts 75°
2026-05-07 19:10 52.39470 3.14393 36616 ft 464 kts 75°
2026-05-07 19:11 52.40346 3.19479 36812 ft 464 kts 75°
2026-05-07 19:11 52.41219 3.24562 37000 ft 464 kts 75°
2026-05-07 19:11 52.42673 3.33019 37112 ft 464 kts 75°
2026-05-07 19:12 52.44420 3.43209 37114 ft 464 kts 75°
2026-05-07 19:12 52.46155 3.53392 37114 ft 464 kts 75°
2026-05-07 19:13 52.47871 3.63577 37107 ft 462 kts 75°
2026-05-07 19:13 52.49576 3.73731 37110 ft 461 kts 75°
2026-05-07 19:14 52.51272 3.83890 37111 ft 461 kts 76°
2026-05-07 19:14 52.52959 3.94042 37111 ft 461 kts 76°
2026-05-07 19:15 52.54638 4.04221 37101 ft 461 kts 76°
2026-05-07 19:15 52.56305 4.14401 37104 ft 462 kts 76°
2026-05-07 19:16 52.57967 4.24598 37100 ft 462 kts 76°
2026-05-07 19:16 52.59623 4.34807 37106 ft 462 kts 76°
2026-05-07 19:17 52.61270 4.45026 37108 ft 462 kts 76°
2026-05-07 19:17 52.62905 4.55250 37110 ft 462 kts 76°
2026-05-07 19:18 52.64531 4.65485 37111 ft 462 kts 76°
2026-05-07 19:18 52.66154 4.75731 37111 ft 462 kts 76°
2026-05-07 19:19 52.67765 4.85985 37127 ft 462 kts 76°
2026-05-07 19:19 52.69363 4.96231 37128 ft 461 kts 76°
2026-05-07 19:20 52.70952 5.06472 37117 ft 461 kts 76°
2026-05-07 19:20 52.72534 5.16721 37119 ft 461 kts 77°
2026-05-07 19:21 52.74101 5.26957 37121 ft 460 kts 77°
2026-05-07 19:21 52.75660 5.37211 37123 ft 460 kts 77°
2026-05-07 19:22 52.77219 5.47532 37118 ft 460 kts 77°
2026-05-07 19:22 52.78751 5.57724 37111 ft 460 kts 77°
2026-05-07 19:23 52.80295 5.68018 37108 ft 461 kts 77°
2026-05-07 19:23 52.81821 5.78279 37108 ft 461 kts 77°
2026-05-07 19:24 52.83334 5.88570 37121 ft 461 kts 77°
2026-05-07 19:24 52.84841 5.98878 37121 ft 461 kts 77°
2026-05-07 19:25 52.86342 6.09189 37127 ft 461 kts 77°
2026-05-07 19:25 52.87839 6.19490 37123 ft 460 kts 77°
2026-05-07 19:26 52.89321 6.29796 37130 ft 460 kts 77°
2026-05-07 19:26 52.90786 6.40100 37134 ft 460 kts 78°
2026-05-07 19:27 52.92239 6.50412 37132 ft 459 kts 78°
2026-05-07 19:27 52.93692 6.60724 37128 ft 459 kts 78°
2026-05-07 19:28 52.95133 6.71041 37132 ft 459 kts 78°
2026-05-07 19:28 52.96565 6.81374 37121 ft 460 kts 78°
2026-05-07 19:29 52.97989 6.91715 37124 ft 460 kts 78°
2026-05-07 19:29 52.99410 7.02058 37130 ft 460 kts 78°
2026-05-07 19:30 53.00817 7.12410 37125 ft 460 kts 78°
2026-05-07 19:30 53.02209 7.22773 36899 ft 460 kts 78°
2026-05-07 19:31 53.02975 7.27928 36642 ft 459 kts 72°
2026-05-07 19:31 53.04213 7.32798 36384 ft 457 kts 61°
2026-05-07 19:31 53.05954 7.37211 36132 ft 456 kts 51°
2026-05-07 19:31 53.08137 7.41023 35887 ft 455 kts 40°
2026-05-07 19:32 53.10689 7.44119 35645 ft 455 kts 32°
2026-05-07 19:32 53.13368 7.46921 35400 ft 455 kts 32°
2026-05-07 19:32 53.16042 7.49740 35152 ft 454 kts 32°
2026-05-07 19:32 53.18708 7.52570 34912 ft 454 kts 33°
2026-05-07 19:33 53.21370 7.55406 34668 ft 454 kts 33°
2026-05-07 19:33 53.24029 7.58243 34431 ft 453 kts 33°
2026-05-07 19:33 53.26684 7.61071 34197 ft 452 kts 33°
2026-05-07 19:33 53.29333 7.63892 33937 ft 452 kts 33°
2026-05-07 19:34 53.31987 7.66726 33110 ft 456 kts 33°
2026-05-07 19:34 53.34672 7.69595 32355 ft 455 kts 33°
2026-05-07 19:34 53.37321 7.72429 31831 ft 450 kts 33°
2026-05-07 19:34 53.39942 7.75240 31226 ft 446 kts 32°
2026-05-07 19:35 53.42545 7.78037 30631 ft 442 kts 32°
2026-05-07 19:35 53.45124 7.80812 30025 ft 439 kts 32°
2026-05-07 19:35 53.47684 7.83570 29419 ft 435 kts 32°
2026-05-07 19:35 53.50213 7.86299 28857 ft 430 kts 33°
2026-05-07 19:36 53.52678 7.89072 28298 ft 424 kts 39°
2026-05-07 19:36 53.54713 7.92597 27783 ft 418 kts 54°
2026-05-07 19:36 53.56129 7.96959 26711 ft 425 kts 71°
2026-05-07 19:36 53.57019 8.01706 25935 ft 426 kts 73°
2026-05-07 19:37 53.57891 8.06426 25422 ft 420 kts 73°
2026-05-07 19:37 53.58762 8.11087 24908 ft 415 kts 72°
2026-05-07 19:37 53.59629 8.15688 24408 ft 410 kts 72°
2026-05-07 19:37 53.60489 8.20237 23905 ft 405 kts 72°
2026-05-07 19:38 53.61340 8.24733 23419 ft 401 kts 72°
2026-05-07 19:38 53.62179 8.29174 22946 ft 395 kts 72°
2026-05-07 19:38 53.63001 8.33546 22494 ft 389 kts 72°
2026-05-07 19:38 53.63808 8.37866 22052 ft 384 kts 72°
2026-05-07 19:39 53.64602 8.42141 21593 ft 380 kts 72°
2026-05-07 19:39 53.65384 8.46365 21146 ft 376 kts 72°
2026-05-07 19:39 53.66163 8.50568 20684 ft 374 kts 72°
2026-05-07 19:39 53.66932 8.54726 20226 ft 371 kts 72°
2026-05-07 19:40 53.67698 8.58873 19758 ft 369 kts 72°
2026-05-07 19:40 53.68459 8.63000 19295 ft 368 kts 72°
2026-05-07 19:40 53.69215 8.67110 18821 ft 367 kts 72°
2026-05-07 19:40 53.69959 8.71154 18349 ft 366 kts 72°
2026-05-07 19:41 53.70708 8.75234 18047 ft 359 kts 72°
2026-05-07 19:41 53.71433 8.79189 17909 ft 347 kts 73°
2026-05-07 19:41 53.72135 8.83022 17771 ft 336 kts 73°
2026-05-07 19:41 53.72813 8.86756 17548 ft 329 kts 73°
2026-05-07 19:42 53.73477 8.90426 17240 ft 325 kts 73°
2026-05-07 19:42 53.74136 8.94064 16902 ft 323 kts 73°
2026-05-07 19:42 53.74787 8.97681 16543 ft 321 kts 73°
2026-05-07 19:42 53.75436 9.01286 16214 ft 319 kts 73°
2026-05-07 19:43 53.76078 9.04863 15878 ft 318 kts 73°
2026-05-07 19:43 53.76719 9.08429 15533 ft 316 kts 73°
2026-05-07 19:43 53.77354 9.11980 15211 ft 315 kts 73°
2026-05-07 19:43 53.77985 9.15504 14902 ft 313 kts 73°
2026-05-07 19:44 53.78616 9.19035 14578 ft 312 kts 73°
2026-05-07 19:44 53.79239 9.22530 14278 ft 310 kts 73°
2026-05-07 19:44 53.79857 9.25996 14082 ft 302 kts 73°
2026-05-07 19:44 53.80365 9.29340 13838 ft 288 kts 82°
2026-05-07 19:45 53.80441 9.32677 13409 ft 281 kts 96°
2026-05-07 19:45 53.80082 9.35853 13092 ft 271 kts 108°
2026-05-07 19:45 53.79358 9.38756 12649 ft 266 kts 120°
2026-05-07 19:45 53.78353 9.41358 12173 ft 263 kts 124°
2026-05-07 19:46 53.77294 9.43855 11686 ft 260 kts 134°
2026-05-07 19:46 53.75858 9.45640 11218 ft 256 kts 156°
2026-05-07 19:46 53.74151 9.46391 10701 ft 256 kts 176°
2026-05-07 19:46 53.72356 9.46040 9965 ft 265 kts 199°
2026-05-07 19:47 53.70702 9.44659 9296 ft 266 kts 207°
2026-05-07 19:47 53.68964 9.43766 8740 ft 260 kts 182°
2026-05-07 19:47 53.67190 9.44054 8218 ft 255 kts 163°
2026-05-07 19:47 53.65485 9.44838 7698 ft 254 kts 163°
2026-05-07 19:48 53.63767 9.45557 7230 ft 254 kts 164°
2026-05-07 19:48 53.62063 9.46237 6811 ft 249 kts 165°
2026-05-07 19:48 53.60398 9.46893 6384 ft 243 kts 165°
2026-05-07 19:48 53.58761 9.47534 5924 ft 240 kts 165°
2026-05-07 19:49 53.57146 9.48165 5484 ft 238 kts 165°
2026-05-07 19:49 53.55518 9.48803 5066 ft 242 kts 165°
2026-05-07 19:49 53.53903 9.49436 4921 ft 234 kts 164°
2026-05-07 19:49 53.52322 9.50020 4778 ft 232 kts 171°
2026-05-07 19:50 53.50710 9.49907 4651 ft 235 kts 191°
2026-05-07 19:50 53.49692 9.49304 4565 ft 236 kts 205°
2026-05-07 19:50 53.48012 9.46962 4379 ft 235 kts 229°
2026-05-07 19:50 53.47320 9.45565 4293 ft 234 kts 229°
2026-05-07 19:51 53.46285 9.43489 4162 ft 228 kts 228°
2026-05-07 19:51 53.45132 9.41807 4052 ft 215 kts 200°
2026-05-07 19:51 53.43706 9.41490 3977 ft 206 kts 164°
2026-05-07 19:51 53.42413 9.42446 3982 ft 204 kts 147°
2026-05-07 19:52 53.41248 9.43781 3979 ft 202 kts 131°
2026-05-07 19:52 53.40635 9.45818 3982 ft 199 kts 95°
2026-05-07 19:52 53.40779 9.48109 3985 ft 200 kts 77°
2026-05-07 19:52 53.41145 9.50349 3895 ft 198 kts 75°
2026-05-07 19:53 53.41532 9.52524 3773 ft 190 kts 74°
2026-05-07 19:53 53.41907 9.54586 3643 ft 180 kts 74°
2026-05-07 19:53 53.42289 9.56545 3518 ft 174 kts 67°
2026-05-07 19:53 53.42919 9.58253 3389 ft 171 kts 56°
2026-05-07 19:54 53.43638 9.59825 3259 ft 169 kts 54°
2026-05-07 19:54 53.44380 9.61351 3133 ft 168 kts 53°
2026-05-07 19:54 53.45128 9.62858 3043 ft 169 kts 53°
2026-05-07 19:54 53.45881 9.64365 3010 ft 169 kts 52°
2026-05-07 19:55 53.46646 9.65894 3008 ft 169 kts 52°
2026-05-07 19:55 53.47401 9.67402 3009 ft 169 kts 52°
2026-05-07 19:55 53.48157 9.68912 3008 ft 169 kts 52°
2026-05-07 19:55 53.48911 9.70420 3011 ft 169 kts 52°
2026-05-07 19:56 53.49667 9.71931 3009 ft 169 kts 52°
2026-05-07 19:56 53.50420 9.73439 3009 ft 169 kts 52°
2026-05-07 19:56 53.51175 9.74949 3010 ft 169 kts 52°
2026-05-07 19:56 53.51930 9.76462 3008 ft 169 kts 52°
2026-05-07 19:57 53.52688 9.77982 2887 ft 170 kts 52°
2026-05-07 19:57 53.53442 9.79495 2710 ft 168 kts 52°
2026-05-07 19:57 53.54184 9.80980 2491 ft 168 kts 52°
2026-05-07 19:57 53.54945 9.82496 2287 ft 166 kts 52°
2026-05-07 19:58 53.55689 9.83952 2106 ft 163 kts 52°
2026-05-07 19:58 53.56411 9.85370 1904 ft 154 kts 52°
2026-05-07 19:58 53.57068 9.86633 1780 ft 136 kts 53°
2026-05-07 19:58 53.57647 9.87884 1512 ft 137 kts 56°
2026-05-07 19:59 53.58226 9.89162 1314 ft 137 kts 54°
2026-05-07 19:59 53.58850 9.90384 1109 ft 136 kts 51°
2026-05-07 19:59 53.59463 9.91565 942 ft 134 kts 53°
2026-05-07 19:59 53.60052 9.92782 711 ft 134 kts 52°
2026-05-07 20:00 53.60644 9.93983 514 ft 134 kts 50°
2026-05-07 20:00 53.61249 9.95194 329 ft 135 kts 50°
2026-05-07 20:00 53.61841 9.96404 151 ft 131 kts 50°
2026-05-07 20:00 53.62399 9.97539 47 ft 112 kts 50°
2026-05-07 20:01 53.62784 9.98307 50 ft 61 kts 50°
2026-05-07 20:01 53.62981 9.98712 49 ft 39 kts 51°
2026-05-07 20:01 53.63090 9.99082 51 ft 33 kts 85°
2026-05-07 20:01 53.63115 9.99448 47 ft 31 kts 58°
2026-05-07 20:02 53.63225 9.99705 50 ft 20 kts 81°
2026-05-07 20:02 53.63170 9.99794 50 ft 9 kts 161°
2026-05-07 20:02 53.63126 9.99845 50 ft 7 kts 146°
2026-05-07 20:02 53.63087 9.99881 50 ft 6 kts 153°
2026-05-07 20:03 53.63055 9.99907 50 ft 5 kts 154°
2026-05-07 20:03 53.63008 9.99947 50 ft 8 kts 154°
2026-05-07 20:03 53.62964 9.99986 49 ft 6 kts 147°
2026-05-07 20:03 53.62928 10.00017 50 ft 6 kts 154°
2026-05-07 20:04 53.62927 10.00112 51 ft 13 kts 34°
2026-05-07 20:04 53.63010 10.00197 51 ft 15 kts 32°
2026-05-07 20:04 53.63059 10.00277 51 ft 5 kts 114°
2026-05-07 20:04 53.63044 10.00319 50 ft 4 kts 121°
2026-05-07 20:05 53.63034 10.00344 51 ft 1 kts 122°
2026-05-07 20:05 53.63033 10.00349 51 ft 0 kts 122°
2026-05-07 20:05 53.63032 10.00350 51 ft 0 kts 122°